Change the Weather History Date:

Friday, March 29, 2013

  Actual Average Record
Temperature  
Mean Temperature 44 °F -  
Max Temperature 57 °F 48 °F 75 °F (1998)
Min Temperature 30 °F 32 °F 23 °F (2006)
Degree Days  
Heating Degree Days 22    
Moisture  
Dew Point 30 °F    
Average Humidity 60    
Maximum Humidity 96    
Minimum Humidity 31    
Precipitation  
Precipitation 0.00 in - - ()
Sea Level Pressure  
Sea Level Pressure 30.02 in    
Wind  
Wind Speed 4 mph (NW)    
Max Wind Speed 15 mph    
Max Gust Speed 22 mph    
Visibility 10 miles    
Events      
Averages and records for this station are not official NWS values.
T = Trace of Precipitation, MM = Missing Value Source: NWS Daily Summary

Daily Weather History Graph

Daily Weather History Graph

Search for Another Location

Airport or City:

Trip Planner

Search our weather history database for the weather conditions in past years. The results will help you decide how hot, cold, wet, or windy it might be!

Date:

Astronomy

Mar. 29, 2013 Rise Set
Actual Time 6:32 AM EDT 7:07 PM EDT
Civil Twilight 6:03 AM EDT 7:35 PM EDT
Nautical Twilight 5:30 AM EDT 8:08 PM EDT
Astronomical Twilight 4:56 AM EDT 8:43 PM EDT
Moon 10:07 PM EDT (3/29) 7:35 AM EDT (3/29)
Length of Visible Light 13h 31m
Length of Day
12h 35m
Waning Gibbous, 93% of the Moon is Illuminated
Mar 29
Waning Gibbous
Apr 3
Last Quarter
Apr 10
New
Apr 18
First Quarter
Apr 25
Full

Hourly Weather History & Observations

Time (EDT) Temp. Windchill Dew Point Humidity Pressure Visibility Wind Dir Wind Speed Gust Speed Precip Events Conditions
12:53 AM 39.9 °F - 33.1 °F 77% 30.02 in 10.0 mi Calm Calm - N/A   Overcast
1:53 AM 37.0 °F - 33.1 °F 86% 30.03 in 10.0 mi Calm Calm - N/A   Mostly Cloudy
2:53 AM 32.0 °F - 30.9 °F 96% 30.02 in 10.0 mi Calm Calm - N/A   Clear
3:53 AM 32.0 °F - 30.9 °F 96% 30.02 in 10.0 mi Calm Calm - N/A   Clear
4:53 AM 30.0 °F - 28.0 °F 92% 30.02 in 10.0 mi Calm Calm - N/A   Clear
5:53 AM 30.0 °F - 28.9 °F 96% 30.03 in 10.0 mi Calm Calm - N/A   Clear
6:53 AM 30.0 °F - 28.0 °F 92% 30.04 in 10.0 mi Calm Calm - N/A   Clear
7:53 AM 37.9 °F - 35.1 °F 89% 30.04 in 10.0 mi Calm Calm - N/A   Clear
8:53 AM 46.9 °F - 33.1 °F 59% 30.04 in 10.0 mi NW 8.1 mph - N/A   Clear
9:53 AM 51.1 °F - 33.1 °F 50% 30.04 in 10.0 mi NW 15.0 mph 21.9 mph N/A   Partly Cloudy
10:53 AM 52.0 °F - 33.1 °F 49% 30.04 in 10.0 mi North 10.4 mph - N/A   Overcast
11:53 AM 54.0 °F - 33.1 °F 45% 30.03 in 10.0 mi NW 12.7 mph - N/A   Overcast
12:53 PM 57.0 °F - 30.0 °F 36% 30.02 in 10.0 mi NW 10.4 mph - N/A   Partly Cloudy
1:53 PM 55.9 °F - 28.0 °F 34% 29.99 in 10.0 mi NW 4.6 mph - N/A   Clear
2:53 PM 55.0 °F - 27.0 °F 34% 29.97 in 10.0 mi SW 6.9 mph - N/A   Overcast
3:53 PM 55.9 °F - 26.1 °F 32% 29.96 in 10.0 mi NNW 8.1 mph - N/A   Overcast
4:53 PM 55.0 °F - 25.0 °F 31% 29.96 in 10.0 mi West 9.2 mph - N/A   Overcast
5:53 PM 53.1 °F - 28.0 °F 38% 29.98 in 10.0 mi WNW 12.7 mph - N/A   Overcast
6:53 PM 52.0 °F - 30.0 °F 43% 29.99 in 10.0 mi NW 10.4 mph - N/A   Overcast
7:53 PM 48.0 °F - 28.0 °F 46% 30.00 in 10.0 mi Calm Calm - N/A   Partly Cloudy
8:53 PM 46.9 °F - 28.9 °F 50% 30.02 in 10.0 mi NW 6.9 mph - N/A   Mostly Cloudy
9:53 PM 46.9 °F - 28.9 °F 50% 30.04 in 10.0 mi NW 8.1 mph - N/A   Overcast
10:53 PM 46.0 °F 43.9 °F 30.0 °F 54% 30.04 in 10.0 mi WNW 4.6 mph - N/A   Overcast
11:53 PM 45.0 °F 42.6 °F 30.9 °F 58% 30.04 in 10.0 mi WNW 4.6 mph - N/A   Overcast